User: anonymous   Login
Location: Unspecified
(0.0000°N, 0.0000°E)
Time: 20:42:01
(UTC+00:00)
Language:

TBA - TO BE ASSIGNED - Orbit

View from above orbital plane
View from above orbital plane
View from above satellite
View from above satellite

Ground track
Ground track

The orbit is defined by the following mean orbital elements,

1 68993U          26145.26953098 +.00000000 +00000-0 +15746-3 0 00004
2 68993  97.7393  43.1492 0002503 188.4171 171.7006 14.91683403    09
Epoch (UTC): 25 May 2026 06:28:07
Eccentricity: 0.0002503
inclination: 97.7393°
perigee height: 591 km
apogee height: 594 km
right ascension of ascending node: 43.1492°
argument of perigee: 188.4171°
revolutions per day: 14.91683403
mean anomaly at epoch: 171.7006°

The dashed part of the orbit path shows where the satellite is in the earth's shadow,  

DLR